Location: Igloolik
(69.3800°N, 81.8000°W)
Time: 10:12:34
(UTC-05:00)

Amateur Radio Satellites - All Passes

Search period start: 18 April 2015 09:42
Search period end: 19 April 2015 09:42
Location: Igloolik, 69.3800°N, 81.8000°W

Satellite Date Start Highest point End Downlink Frequencies (MHz)
Time Altitude Azimuth
COMPASS 1 18 Apr 09:43:37 09:47:47 49° 102° (ESE) 09:51:56 437.405
HUMSAT D 18 Apr 09:44:51 09:47:50 18° 80° (E) 09:50:53 437.325/437.525
CANX-2 18 Apr 09:50:03 09:54:25 69° 108° (ESE) 09:58:44 2200.000
VELOX 1 18 Apr 09:53:56 09:56:30 15° 77° (ENE) 09:59:10 145.980
BEESAT 2 18 Apr 09:55:11 09:59:10 44° 189° (S) 10:03:10 435.950
FUNcube-1 18 Apr 09:55:21 09:59:19 29° 90° (E) 10:03:22 145.935
Cosmos 2504 18 Apr 09:55:21 09:58:16 12° 32° (NNE) 10:01:21 435.465 / 435.565
SEEDS 18 Apr 09:55:53 10:00:11 64° 106° (ESE) 10:04:27 437.485
BUGSAT 1 18 Apr 09:57:44 10:01:47 88° 67° (ENE) 10:05:52 437.445
QB50P2 18 Apr 09:59:48 10:04:04 76° 249° (WSW) 10:08:22 145.880/145.840
CUTE 1.7 + AOD 2 18 Apr 10:00:31 10:04:53 74° 109° (ESE) 10:09:13 437.475
Cosmos 2491 18 Apr 10:00:56 10:09:48 86° 252° (WSW) 10:18:40 435.465 / 435.565
JAS-2 18 Apr 10:02:30 10:09:12 34° 358° (N) 10:15:26 435.910
AO-7 18 Apr 10:02:51 10:10:40 47° 356° (N) 10:18:28 29.400- 29.500
AIST 2 18 Apr 10:04:09 10:08:19 47° 180° (S) 10:12:27 435.215
BEESAT 3 18 Apr 10:04:36 10:08:33 42° 193° (SSW) 10:12:28 437.485
AISAT 18 Apr 10:08:09 10:11:12 18° 81° (E) 10:14:20 437.250
UKube-1 18 Apr 10:14:57 10:18:37 26° 90° (E) 10:22:18 .
CUBEBUG 2 18 Apr 10:15:29 10:19:57 45° 99° (E) 10:24:32 437.445
ZACube-1 18 Apr 10:17:14 10:21:30 38° 96° (E) 10:25:48 437.345
TIGRISAT 18 Apr 10:17:41 10:22:06 47° 259° (W) 10:26:38 435.000
ESTCUBE 1 18 Apr 10:17:54 10:20:37 16° 77° (ENE) 10:23:25 437.505/2401.250
UNISAT 6 18 Apr 10:18:06 10:22:31 47° 260° (W) 10:27:03 437.425
AIST 1 18 Apr 10:18:08 10:22:07 36° 48° (NE) 10:26:06
POPSAT HIP 1 18 Apr 10:23:26 10:27:37 58° 255° (WSW) 10:31:50 437.405
CUBEBUG 1 18 Apr 10:24:01 10:26:33 15° 77° (ENE) 10:29:10 437.445
NANOSAT C BR1 18 Apr 10:24:07 10:28:18 57° 255° (WSW) 10:32:31 145.865
Gurwin Techsat 1B 18 Apr 10:25:15 10:29:47 29° 26° (NNE) 10:34:21 435.225
Oscar 19 18 Apr 10:27:36 10:32:26 41° 41° (NE) 10:37:18 437.125/150
AAUSAT CUBESAT 2 18 Apr 10:33:26 10:37:44 85° 111° (ESE) 10:41:58 437.432
Oscar 11 18 Apr 10:36:43 10:41:06 61° 106° (ESE) 10:45:26 145.826/435.025
BRITE-PL 18 Apr 10:39:18 10:43:39 55° 304° (NW) 10:48:19 437.365/2234.400
PCSat 18 Apr 10:44:01 10:48:22 25° 126° (SE) 10:52:47 145.827
ITAMSAT 1 18 Apr 10:44:07 10:48:43 33° 32° (NNE) 10:53:21 435.822/435.867
DOVE 4 18 Apr 10:48:22 10:52:59 72° 298° (WNW) 10:57:54 437.250
50 SAT 18 Apr 10:49:21 10:52:56 29° 92° (E) 10:56:32 437.505
POLYITAN 1 18 Apr 10:49:33 10:53:36 41° 261° (W) 10:57:41 437.675
CUTE-I 18 Apr 10:54:43 10:59:14 29° 337° (NNW) 11:03:44 437.470
DX 1 18 Apr 10:55:58 11:00:09 43° 101° (E) 11:04:20 434.975-435.025
CINEMA 3 18 Apr 10:56:59 11:01:41 86° 295° (WNW) 11:06:35 145.822/145.860
UWE-3 18 Apr 10:59:31 11:04:08 68° 107° (ESE) 11:08:49 435.000/436.395/437.385
ANTELSAT 18 Apr 11:00:38 11:04:40 29° 270° (W) 11:08:45 437.575/2403.000
DUCHIFAT 1 18 Apr 11:01:15 11:05:10 36° 263° (W) 11:09:08 145.980
Cubesat XI-IV 18 Apr 11:01:44 11:06:14 28° 339° (NNW) 11:10:42 437.490
DELFI C3 18 Apr 11:02:47 11:06:54 74° 109° (ESE) 11:10:59 145.870
Cosmos 2499 18 Apr 11:03:41 11:06:15 12° 328° (NNW) 11:08:36 435.465 / 435.565
HORYU 2 18 Apr 11:07:32 11:10:57 22° 20° (NNE) 11:14:24 437.375
HO-68 18 Apr 11:08:15 11:15:30 82° 305° (NW) 11:22:44 435.675
GOMX 1 18 Apr 11:09:31 11:13:56 50° 307° (NW) 11:18:37 467.674
QB50P1 18 Apr 11:13:31 11:17:20 31° 266° (W) 11:21:09 145.935-145.965
COMPASS 1 18 Apr 11:19:25 11:23:36 54° 304° (NW) 11:27:45 437.405
HUMSAT D 18 Apr 11:20:14 11:24:32 55° 104° (ESE) 11:28:50 437.325/437.525
CANX-2 18 Apr 11:26:08 11:30:14 42° 310° (NW) 11:34:20 2200.000
YUBILEINY 18 Apr 11:27:30 11:36:05 60° 94° (E) 11:44:43 435.215
VELOX 1 18 Apr 11:29:56 11:34:12 45° 101° (E) 11:38:29 145.980
FUNcube-1 18 Apr 11:31:39 11:36:13 87° 115° (ESE) 11:40:50 145.935
SEEDS 18 Apr 11:31:50 11:35:57 44° 309° (NW) 11:40:01 437.485
BEESAT 2 18 Apr 11:33:05 11:36:44 29° 212° (SSW) 11:40:20 435.950
BUGSAT 1 18 Apr 11:34:16 11:37:47 27° 268° (W) 11:41:17 437.445
CUTE 1.7 + AOD 2 18 Apr 11:36:36 11:40:39 39° 312° (NW) 11:44:42 437.475
QB50P2 18 Apr 11:37:09 11:40:38 24° 272° (W) 11:44:08 145.880/145.840
Cosmos 2504 18 Apr 11:42:10 11:48:36 24° 60° (ENE) 11:55:02 435.465 / 435.565
AIST 2 18 Apr 11:42:27 11:46:26 37° 203° (SSW) 11:50:22 435.215
BEESAT 3 18 Apr 11:42:28 11:45:57 26° 215° (SW) 11:49:22 437.485
AISAT 18 Apr 11:44:24 11:48:47 55° 105° (ESE) 11:53:10 437.250
JAS-2 18 Apr 11:45:52 11:52:54 39° 23° (NNE) 11:59:32 435.910
UKube-1 18 Apr 11:51:01 11:55:23 81° 112° (ESE) 11:59:45 .
CUBEBUG 2 18 Apr 11:52:17 11:56:52 64° 301° (WNW) 12:01:33 437.445
ZACube-1 18 Apr 11:53:40 11:58:13 74° 298° (WNW) 12:02:49 437.345
ESTCUBE 1 18 Apr 11:54:16 11:58:39 46° 101° (E) 12:03:00 437.505/2401.250
AO-7 18 Apr 11:54:32 12:02:30 54° 24° (NNE) 12:10:30 29.400- 29.500
AIST 1 18 Apr 11:55:53 12:00:11 79° 253° (WSW) 12:04:28
TIGRISAT 18 Apr 11:57:04 12:00:01 16° 284° (WNW) 12:02:56 435.000
UNISAT 6 18 Apr 11:57:33 12:00:29 16° 284° (WNW) 12:03:22 437.425
Cosmos 2491 18 Apr 11:57:55 12:06:00 42° 279° (W) 12:14:03 435.465 / 435.565
CUBEBUG 1 18 Apr 11:59:49 12:04:01 46° 101° (E) 12:08:14 437.445
POPSAT HIP 1 18 Apr 12:01:22 12:04:23 18° 278° (W) 12:07:23 437.405
NANOSAT C BR1 18 Apr 12:02:02 12:05:03 18° 278° (W) 12:08:01 145.865
Gurwin Techsat 1B 18 Apr 12:03:54 12:09:04 54° 50° (NE) 12:14:16 435.225
Oscar 19 18 Apr 12:06:20 12:11:32 89° 241° (WSW) 12:16:48 437.125/150
AAUSAT CUBESAT 2 18 Apr 12:09:14 12:13:07 35° 314° (NW) 12:16:58 437.432
Oscar 11 18 Apr 12:13:03 12:17:16 47° 308° (NW) 12:21:28 145.826/435.025
BEESAT 18 Apr 12:15:49 12:17:50 13° 71° (ENE) 12:19:59 436.000
SPROUT 18 Apr 12:16:47 12:20:36 30° 92° (E) 12:24:28 437.525
SWISSCUBE 18 Apr 12:16:47 12:19:01 13° 72° (ENE) 12:21:23 437.505
TISAT 1 18 Apr 12:17:59 12:21:36 27° 91° (E) 12:25:15 437.305
BRITE-PL 18 Apr 12:18:00 12:21:38 25° 327° (NNW) 12:25:26 437.365/2234.400
ITAMSAT 1 18 Apr 12:22:34 12:27:43 67° 56° (NE) 12:32:54 435.822/435.867
50 SAT 18 Apr 12:24:08 12:28:15 86° 295° (WNW) 12:32:20 437.505
PCSat 18 Apr 12:25:42 12:30:57 50° 149° (SSE) 12:36:12 145.827
DOVE 4 18 Apr 12:26:18 12:30:20 31° 321° (NW) 12:34:34 437.250
POLYITAN 1 18 Apr 12:28:27 12:30:41 14° 284° (WNW) 12:32:51 437.675
DX 1 18 Apr 12:32:18 12:36:38 63° 303° (WNW) 12:40:57 434.975-435.025
CUTE-I 18 Apr 12:33:59 12:38:10 24° 1° (N) 12:42:21 437.470
CINEMA 3 18 Apr 12:34:21 12:38:35 36° 316° (NW) 12:42:59 145.822/145.860
UWE-3 18 Apr 12:36:13 12:40:35 45° 310° (NW) 12:45:02 435.000/436.395/437.385
DELFI C3 18 Apr 12:38:05 12:41:54 37° 312° (NW) 12:45:41 145.870
DUCHIFAT 1 18 Apr 12:40:33 12:42:16 12° 287° (WNW) 12:43:53 145.980
Cubesat XI-IV 18 Apr 12:40:58 12:45:10 24° 3° (N) 12:49:22 437.490
HORYU 2 18 Apr 12:42:35 12:46:45 37° 43° (NE) 12:50:57 437.375
ANTELSAT 18 Apr 12:42:39 12:43:05 10° 295° (WNW) 12:43:23 437.575/2403.000
GOMX 1 18 Apr 12:47:48 12:51:25 24° 330° (NNW) 12:55:13 467.674
QB50P1 18 Apr 12:53:57 12:54:36 10° 290° (WNW) 12:55:09 145.935-145.965
COMPASS 1 18 Apr 12:55:14 12:58:41 24° 327° (NNW) 13:02:06 437.405
HO-68 18 Apr 12:55:58 13:02:50 48° 331° (NNW) 13:09:39 435.675
HUMSAT D 18 Apr 12:56:08 13:00:21 51° 306° (NW) 13:04:35 437.325/437.525
CANX-2 18 Apr 13:02:07 13:05:25 21° 333° (NNW) 13:08:40 2200.000
VELOX 1 18 Apr 13:06:36 13:11:00 61° 303° (WNW) 13:15:22 145.980
SEEDS 18 Apr 13:07:43 13:11:02 22° 331° (NNW) 13:14:17 437.485
FUNcube-1 18 Apr 13:08:09 13:12:18 37° 315° (NW) 13:16:31 145.935
BEESAT 2 18 Apr 13:11:46 13:13:50 13° 234° (SW) 13:15:49 435.950
CUTE 1.7 + AOD 2 18 Apr 13:12:34 13:15:47 21° 334° (NNW) 13:18:59 437.475
ITUPSAT 1 18 Apr 13:16:36 13:20:29 24° 86° (E) 13:24:23 437.325
AIST 2 18 Apr 13:21:05 13:24:11 19° 226° (SW) 13:27:14 435.215
AISAT 18 Apr 13:21:08 13:25:27 52° 307° (NW) 13:29:47 437.250
BEESAT 3 18 Apr 13:21:36 13:22:51 11° 237° (WSW) 13:23:58 437.485
YUBILEINY 18 Apr 13:24:07 13:32:59 72° 301° (WNW) 13:41:51 435.215
UKube-1 18 Apr 13:27:19 13:31:21 38° 315° (NW) 13:35:22 .
CUBEBUG 2 18 Apr 13:29:06 13:33:04 29° 323° (NW) 13:37:04 437.445
JAS-2 18 Apr 13:29:23 13:37:04 60° 48° (NE) 13:44:21 435.910
ZACube-1 18 Apr 13:30:11 13:34:10 31° 320° (NW) 13:38:12 437.345
ESTCUBE 1 18 Apr 13:31:15 13:35:43 61° 304° (NW) 13:40:10 437.505/2401.250
Cosmos 2504 18 Apr 13:31:54 13:40:16 48° 86° (E) 13:48:29 435.465 / 435.565
AIST 1 18 Apr 13:33:54 13:37:23 24° 275° (W) 13:40:48
CUBEBUG 1 18 Apr 13:36:17 13:40:34 59° 304° (NW) 13:44:51 437.445
RS-15 18 Apr 13:36:54 13:41:36 14° 87° (E) 13:46:49 29.354- 29.394
SO-50 18 Apr 13:42:25 13:44:40 13° 121° (ESE) 13:47:04 436.795
Gurwin Techsat 1B 18 Apr 13:43:47 13:49:05 65° 252° (WSW) 13:54:26 435.225
AAUSAT CUBESAT 2 18 Apr 13:44:53 13:47:53 19° 337° (NNW) 13:50:51 437.432
AO-7 18 Apr 13:46:35 13:54:54 82° 50° (NE) 14:03:16 29.400- 29.500
Oscar 19 18 Apr 13:46:49 13:51:31 33° 268° (W) 13:56:14 437.125/150
Oscar 11 18 Apr 13:49:18 13:52:45 23° 331° (NNW) 13:56:11 145.826/435.025
BEESAT 18 Apr 13:52:45 13:57:10 35° 95° (E) 14:01:35 436.000
SPROUT 18 Apr 13:52:50 13:57:11 86° 296° (WNW) 14:01:32 437.525
TISAT 1 18 Apr 13:53:42 13:57:57 86° 113° (ESE) 14:02:13 437.305
SWISSCUBE 18 Apr 13:53:51 13:58:19 37° 96° (E) 14:02:46 437.505
Cosmos 2491 18 Apr 13:54:43 14:00:41 20° 307° (NW) 14:06:30 435.465 / 435.565
BRITE-PL 18 Apr 13:56:14 13:59:05 17° 351° (N) 14:02:00 437.365/2234.400
GONETS M04 18 Apr 13:58:21 14:03:29 18° 47° (NE) 14:08:48
50 SAT 18 Apr 13:59:08 14:02:47 31° 317° (NW) 14:06:24 437.505
STARS 18 Apr 14:02:15 14:04:35 14° 76° (ENE) 14:07:02 437.465
ITAMSAT 1 18 Apr 14:02:29 14:07:31 48° 259° (WSW) 14:12:34 435.822/435.867
DOVE 4 18 Apr 14:03:55 14:07:07 19° 344° (NNW) 14:10:26 437.250
PCSat 18 Apr 14:08:38 14:14:04 70° 173° (S) 14:19:30 145.827
DX 1 18 Apr 14:08:40 14:12:24 28° 325° (NW) 14:16:05 434.975-435.025
CINEMA 3 18 Apr 14:11:28 14:14:53 21° 339° (NNW) 14:18:23 145.822/145.860
CUTE-I 18 Apr 14:12:32 14:17:07 30° 26° (NNE) 14:21:42 437.470
UWE-3 18 Apr 14:12:47 14:16:23 23° 332° (NNW) 14:20:01 435.000/436.395/437.385
DELFI C3 18 Apr 14:13:19 14:16:16 19° 334° (NNW) 14:19:10 145.870
HORYU 2 18 Apr 14:18:38 14:23:10 86° 246° (WSW) 14:27:44 437.375
Cubesat XI-IV 18 Apr 14:19:32 14:24:09 31° 27° (NNE) 14:28:49 437.490
KKS-1 18 Apr 14:23:43 14:27:14 22° 86° (E) 14:30:49 437.445
GOMX 1 18 Apr 14:25:30 14:28:25 17° 353° (N) 14:31:27 467.674
COMPASS 1 18 Apr 14:30:38 14:33:17 16° 350° (N) 14:35:53 437.405
HUMSAT D 18 Apr 14:32:00 14:35:28 24° 328° (NNW) 14:38:55 437.325/437.525
CANX-2 18 Apr 14:37:31 14:40:09 16° 356° (N) 14:42:47 2200.000
Cosmos 2499 18 Apr 14:42:32 14:44:15 11° 28° (NNE) 14:46:08 435.465 / 435.565
HO-68 18 Apr 14:43:01 14:49:32 38° 357° (N) 14:56:03 435.675
SEEDS 18 Apr 14:43:03 14:45:39 16° 355° (N) 14:48:16 437.485
VELOX 1 18 Apr 14:43:17 14:47:02 27° 326° (NW) 14:50:47 145.980
FUNcube-1 18 Apr 14:44:26 14:47:46 21° 338° (NNW) 14:51:07 145.935
CUTE 1.7 + AOD 2 18 Apr 14:47:52 14:50:30 16° 358° (N) 14:53:08 437.475
ITUPSAT 1 18 Apr 14:54:24 14:59:13 69° 109° (ESE) 15:04:01 437.325
AISAT 18 Apr 14:57:49 15:01:26 25° 330° (NNW) 15:05:03 437.250
UKube-1 18 Apr 15:03:25 15:06:41 21° 338° (NNW) 15:09:56 .
CUBEBUG 2 18 Apr 15:05:32 15:08:42 19° 347° (NNW) 15:11:54 437.445
ZACube-1 18 Apr 15:06:23 15:09:32 19° 343° (NNW) 15:12:44 437.345
ESTCUBE 1 18 Apr 15:08:14 15:12:04 28° 326° (NW) 15:15:52 437.505/2401.250
CUBEBUG 1 18 Apr 15:12:47 15:16:25 26° 326° (NW) 15:20:02 437.445
JAS-2 18 Apr 15:14:10 15:22:05 75° 251° (WSW) 15:29:38 435.910
AAUSAT CUBESAT 2 18 Apr 15:19:47 15:22:16 15° 1° (N) 15:24:46 437.432
SO-50 18 Apr 15:19:50 15:23:59 29° 144° (SE) 15:28:15 436.795
YUBILEINY 18 Apr 15:22:58 15:31:20 43° 331° (NNW) 15:39:40 435.215
Cosmos 2504 18 Apr 15:24:23 15:33:22 86° 293° (WNW) 15:42:06 435.465 / 435.565
Oscar 11 18 Apr 15:25:00 15:27:46 17° 355° (N) 15:30:33 145.826/435.025
Gurwin Techsat 1B 18 Apr 15:25:45 15:30:06 24° 277° (W) 15:34:23 435.225
MOZHAYETS 4 18 Apr 15:28:27 15:30:59 15° 73° (ENE) 15:33:36
SPROUT 18 Apr 15:29:06 15:32:58 33° 317° (NW) 15:36:51 437.525
TISAT 1 18 Apr 15:29:39 15:33:31 35° 316° (NW) 15:37:22 437.305
Oscar 19 18 Apr 15:30:22 15:32:35 12° 293° (WNW) 15:34:40 437.125/150
BEESAT 18 Apr 15:30:40 15:35:30 82° 298° (WNW) 15:40:18 436.000
SWISSCUBE 18 Apr 15:31:48 15:36:37 78° 299° (WNW) 15:41:23 437.505
BRITE-PL 18 Apr 15:33:27 15:36:21 18° 15° (NNE) 15:39:23 437.365/2234.400
50 SAT 18 Apr 15:34:00 15:36:44 17° 339° (NNW) 15:39:26 437.505
STARS 18 Apr 15:38:01 15:42:15 41° 99° (E) 15:46:30 437.465
AO-7 18 Apr 15:40:17 15:48:24 53° 256° (WSW) 15:56:31 29.400- 29.500
DOVE 4 18 Apr 15:40:38 15:43:37 18° 8° (N) 15:46:43 437.250
RS-15 18 Apr 15:41:01 15:50:10 34° 116° (ESE) 15:59:44 29.354- 29.394
DX 1 18 Apr 15:44:38 15:47:38 18° 349° (N) 15:50:37 434.975-435.025
ITAMSAT 1 18 Apr 15:44:47 15:48:20 18° 283° (WNW) 15:51:47 435.822/435.867
CINEMA 3 18 Apr 15:47:48 15:50:50 18° 3° (N) 15:53:57 145.822/145.860
DELFI C3 18 Apr 15:47:56 15:50:13 15° 358° (N) 15:52:30 145.870
UWE-3 18 Apr 15:48:46 15:51:44 17° 356° (N) 15:54:44 435.000/436.395/437.385
GONETS M04 18 Apr 15:50:08 15:57:47 36° 75° (ENE) 16:05:35
CUTE-I 18 Apr 15:51:19 15:56:30 54° 49° (NE) 16:01:43 437.470
Cosmos 2491 18 Apr 15:51:54 15:53:57 11° 336° (NNW) 15:55:51 435.465 / 435.565
PCSat 18 Apr 15:51:55 15:57:18 63° 198° (SSW) 16:02:41 145.827
HORYU 2 18 Apr 15:56:27 16:00:24 29° 269° (W) 16:04:22 437.375
Cubesat XI-IV 18 Apr 15:58:24 16:03:37 58° 51° (NE) 16:08:53 437.490
KKS-1 18 Apr 16:00:11 16:04:41 67° 109° (ESE) 16:09:11 437.445
GOMX 1 18 Apr 16:02:12 16:05:18 19° 18° (NNE) 16:08:32 467.674
COMPASS 1 18 Apr 16:04:59 16:07:41 17° 14° (NNE) 16:10:25 437.405
HUMSAT D 18 Apr 16:07:24 16:10:07 16° 352° (N) 16:12:49 437.325/437.525
CANX-2 18 Apr 16:11:51 16:14:50 19° 20° (NNE) 16:17:51 2200.000
SEEDS 18 Apr 16:17:18 16:20:12 18° 19° (NNE) 16:23:08 437.485
VELOX 1 18 Apr 16:19:32 16:22:34 18° 350° (N) 16:25:36 145.980
FUNcube-1 18 Apr 16:19:59 16:22:52 17° 1° (N) 16:25:47 145.935
CUTE 1.7 + AOD 2 18 Apr 16:22:08 16:25:11 19° 21° (NNE) 16:28:15 437.475
Cosmos 2499 18 Apr 16:28:13 16:34:06 21° 56° (ENE) 16:40:00 435.465 / 435.565
HO-68 18 Apr 16:29:27 16:36:10 44° 22° (NNE) 16:42:54 435.675
ITUPSAT 1 18 Apr 16:32:27 16:37:04 47° 312° (NW) 16:41:39 437.325
AISAT 18 Apr 16:33:57 16:36:56 18° 353° (N) 16:39:56 437.250
UKube-1 18 Apr 16:38:49 16:41:41 17° 2° (N) 16:44:33 .
DANDE 18 Apr 16:40:05 16:41:14 11° 67° (ENE) 16:42:35 436.750
CUBEBUG 2 18 Apr 16:41:02 16:44:06 18° 11° (N) 16:47:15 437.445
ZACube-1 18 Apr 16:41:43 16:44:39 17° 7° (N) 16:47:37 437.345
ESTCUBE 1 18 Apr 16:44:46 16:47:53 19° 350° (N) 16:50:59 437.505/2401.250
CUBEBUG 1 18 Apr 16:48:51 16:51:43 17° 349° (N) 16:54:35 437.445
CUSAT 1 18 Apr 16:51:23 16:54:00 17° 74° (ENE) 16:57:10 437.405
AAUSAT CUBESAT 2 18 Apr 16:53:40 16:56:41 19° 24° (NNE) 16:59:45 437.432
SO-50 18 Apr 16:59:13 17:03:51 46° 167° (SSE) 17:08:35 436.795
Oscar 11 18 Apr 16:59:41 17:02:43 19° 18° (NNE) 17:05:47 145.826/435.025
JAS-2 18 Apr 17:01:04 17:08:14 36° 276° (W) 17:15:03 435.910
MOZHAYETS 4 18 Apr 17:05:03 17:09:30 41° 98° (E) 17:13:54
SPROUT 18 Apr 17:05:08 17:08:10 19° 340° (NNW) 17:11:11 437.525
TISAT 1 18 Apr 17:05:26 17:08:27 19° 338° (NNW) 17:11:28 437.305
50 SAT 18 Apr 17:08:06 17:10:21 15° 3° (N) 17:12:37 437.505
BEESAT 18 Apr 17:08:39 17:13:01 35° 321° (NW) 17:17:20 436.000
SWISSCUBE 18 Apr 17:09:47 17:14:06 34° 322° (NW) 17:18:23 437.505
BRITE-PL 18 Apr 17:10:13 17:13:53 30° 39° (NE) 17:17:44 437.365/2234.400
STARS 18 Apr 17:14:33 17:18:59 66° 302° (WNW) 17:23:25 437.465
DOVE 4 18 Apr 17:16:38 17:20:15 26° 32° (NNE) 17:24:02 437.250
Cosmos 2504 18 Apr 17:19:14 17:27:52 50° 320° (NW) 17:36:12 435.465 / 435.565
DX 1 18 Apr 17:19:41 17:22:41 19° 13° (NNE) 17:25:44 434.975-435.025
DELFI C3 18 Apr 17:21:25 17:24:08 18° 21° (NNE) 17:26:54 145.870
YUBILEINY 18 Apr 17:22:36 17:30:37 36° 1° (N) 17:38:37 435.215
CINEMA 3 18 Apr 17:23:18 17:26:50 23° 27° (NNE) 17:30:31 145.822/145.860
UWE-3 18 Apr 17:23:46 17:27:00 20° 20° (NNE) 17:30:20 435.000/436.395/437.385
PRISM 18 Apr 17:30:09 17:31:27 11° 74° (ENE) 17:32:52 437.425
CUTE-I 18 Apr 17:31:20 17:36:39 64° 252° (WSW) 17:41:59 437.470
PCSat 18 Apr 17:35:12 17:40:12 37° 222° (SW) 17:45:10 145.827
AO-7 18 Apr 17:36:44 17:43:20 25° 284° (WNW) 17:49:49 29.400- 29.500
KKS-1 18 Apr 17:36:59 17:41:16 45° 311° (NW) 17:45:32 437.445
AUBIESAT-1 18 Apr 17:37:32 17:40:11 15° 85° (E) 17:42:51 437.475
Cubesat XI-IV 18 Apr 17:38:34 17:43:51 59° 254° (WSW) 17:49:10 437.490
GOMX 1 18 Apr 17:38:39 17:42:29 33° 41° (NE) 17:46:32 467.674
COMPASS 1 18 Apr 17:38:47 17:42:21 26° 36° (NE) 17:45:54 437.405
HUMSAT D 18 Apr 17:41:46 17:44:37 18° 15° (NNE) 17:47:29 437.325/437.525
GONETS M04 18 Apr 17:44:52 17:53:37 75° 102° (ESE) 18:02:28
CANX-2 18 Apr 17:45:59 17:49:51 32° 43° (NE) 17:53:44 2200.000
RS-15 18 Apr 17:49:56 18:00:31 58° 145° (SE) 18:11:32 29.354- 29.394
SEEDS 18 Apr 17:51:17 17:55:03 31° 42° (NE) 17:58:52 437.485
FUNcube-1 18 Apr 17:54:38 17:58:00 22° 25° (NNE) 18:01:26 145.935
VELOX 1 18 Apr 17:54:51 17:57:55 19° 13° (NNE) 18:01:01 145.980
CUTE 1.7 + AOD 2 18 Apr 17:56:18 18:00:12 34° 44° (NE) 18:04:09 437.475
AISAT 18 Apr 18:09:09 18:12:20 20° 17° (NNE) 18:15:33 437.250
ITUPSAT 1 18 Apr 18:10:18 18:14:13 25° 335° (NNW) 18:18:06 437.325
UKube-1 18 Apr 18:13:20 18:16:42 22° 25° (NNE) 18:20:05 .
CUBEBUG 2 18 Apr 18:15:57 18:19:42 27° 34° (NE) 18:23:35 437.445
HO-68 18 Apr 18:16:08 18:23:17 70° 48° (NE) 18:30:29 435.675
ZACube-1 18 Apr 18:16:18 18:19:51 24° 30° (NNE) 18:23:30 437.345
Cosmos 2499 18 Apr 18:17:11 18:25:17 43° 83° (E) 18:33:10 435.465 / 435.565
CUBESAT XI-V 18 Apr 18:18:58 18:23:02 29° 90° (E) 18:27:05 437.345
DANDE 18 Apr 18:19:38 18:22:59 37° 95° (E) 18:27:23 436.750
ESTCUBE 1 18 Apr 18:20:20 18:23:31 19° 13° (NNE) 18:26:42 437.505/2401.250
M-CUBED/EXP-1 PRIME 18 Apr 18:21:50 18:25:50 26° 97° (E) 18:29:41 437.505
CUBEBUG 1 18 Apr 18:23:57 18:26:52 18° 13° (NNE) 18:29:47 437.445
STRAND 1 18 Apr 18:27:33 18:31:38 24° 84° (E) 18:35:46 437.568
AAUSAT CUBESAT 2 18 Apr 18:27:35 18:31:29 37° 47° (NE) 18:35:25 437.432
CUSAT 1 18 Apr 18:31:46 18:35:32 54° 102° (ESE) 18:40:37 437.405
Oscar 11 18 Apr 18:34:05 18:37:57 32° 41° (NE) 18:41:51 145.826/435.025
SO-50 18 Apr 18:39:15 18:43:57 47° 190° (S) 18:48:42 436.795
SPROUT 18 Apr 18:40:21 18:43:02 16° 4° (N) 18:45:42 437.525
TISAT 1 18 Apr 18:40:28 18:43:03 16° 2° (N) 18:45:38 437.305
50 SAT 18 Apr 18:41:08 18:44:01 19° 26° (NNE) 18:46:56 437.505
MOZHAYETS 4 18 Apr 18:42:23 18:47:02 69° 300° (WNW) 18:51:38
BEESAT 18 Apr 18:46:15 18:49:55 22° 344° (NNW) 18:53:34 436.000
SWISSCUBE 18 Apr 18:47:22 18:51:00 22° 346° (NNW) 18:54:37 437.505
BRITE-PL 18 Apr 18:47:52 18:52:03 77° 63° (ENE) 18:56:27 437.365/2234.400
JAS-2 18 Apr 18:50:58 18:55:42 16° 302° (WNW) 19:00:09 435.910
STARS 18 Apr 18:51:08 18:54:58 29° 324° (NW) 18:58:48 437.465
DOVE 4 18 Apr 18:53:11 18:57:25 56° 56° (NE) 19:01:54 437.250
DX 1 18 Apr 18:54:13 18:57:58 29° 36° (NE) 19:01:44 434.975-435.025
DELFI C3 18 Apr 18:54:44 18:58:24 32° 44° (NE) 19:02:04 145.870
UWE-3 18 Apr 18:58:36 19:02:37 34° 43° (NE) 19:06:45 435.000/436.395/437.385
CINEMA 3 18 Apr 18:59:04 19:03:17 46° 51° (NE) 19:07:44 145.822/145.860
PRISM 18 Apr 19:04:22 19:08:12 35° 97° (E) 19:12:01 437.425
AUBIESAT-1 18 Apr 19:11:43 19:16:14 42° 108° (ESE) 19:20:29 437.475
COMPASS 1 18 Apr 19:13:18 19:17:31 62° 59° (ENE) 19:21:45 437.405
CUTE-I 18 Apr 19:13:26 19:17:45 24° 276° (W) 19:22:02 437.470
KKS-1 18 Apr 19:13:38 19:17:10 23° 334° (NNW) 19:20:42 437.445
Cosmos 2504 18 Apr 19:15:25 19:23:29 36° 349° (N) 19:31:12 435.465 / 435.565
HUMSAT D 18 Apr 19:15:42 19:19:21 28° 38° (NE) 19:23:05 437.325/437.525
GOMX 1 18 Apr 19:16:03 19:20:18 86° 68° (ENE) 19:24:49 467.674
PCSat 18 Apr 19:19:00 19:22:26 17° 245° (WSW) 19:25:45 145.827
Cubesat XI-IV 18 Apr 19:20:53 19:25:05 22° 278° (W) 19:29:12 437.490
CANX-2 18 Apr 19:21:06 19:25:27 84° 68° (ENE) 19:29:49 2200.000
YUBILEINY 18 Apr 19:21:27 19:29:52 45° 32° (NNE) 19:38:14 435.215
SEEDS 18 Apr 19:26:11 19:30:29 79° 65° (ENE) 19:34:50 437.485
FUNcube-1 18 Apr 19:29:23 19:33:30 41° 48° (NE) 19:37:45 145.935
VELOX 1 18 Apr 19:29:41 19:33:30 29° 37° (NE) 19:37:21 145.980
CUTE 1.7 + AOD 2 18 Apr 19:31:30 19:35:51 90° 313° (NW) 19:40:14 437.475
Cosmos 2491 18 Apr 19:35:07 19:39:05 14° 38° (NE) 19:43:17 435.465 / 435.565
AO-7 18 Apr 19:38:50 19:40:00 10° 314° (NW) 19:40:53 29.400- 29.500
GONETS M04 18 Apr 19:42:17 19:51:00 60° 310° (NW) 19:59:48
AISAT 18 Apr 19:44:04 19:48:01 33° 40° (NE) 19:52:00 437.250
ITUPSAT 1 18 Apr 19:47:28 19:50:58 20° 359° (N) 19:54:26 437.325
UKube-1 18 Apr 19:48:01 19:52:07 43° 48° (NE) 19:56:15 .
ZACube-1 18 Apr 19:51:17 19:55:32 50° 54° (NE) 19:59:56 437.345
CUBEBUG 2 18 Apr 19:51:28 19:55:50 60° 57° (ENE) 20:00:21 437.445
ESTCUBE 1 18 Apr 19:55:28 19:59:23 30° 37° (NE) 20:03:20 437.505/2401.250
CUBESAT XI-V 18 Apr 19:56:25 20:01:05 87° 117° (ESE) 20:05:43 437.345
M-CUBED/EXP-1 PRIME 18 Apr 19:56:37 20:01:26 73° 121° (ESE) 20:05:57 437.505
CUBEBUG 1 18 Apr 19:58:31 20:02:13 28° 37° (NE) 20:05:56 437.445
RS-15 18 Apr 20:01:04 20:12:01 71° 176° (S) 20:23:30 29.354- 29.394
DANDE 18 Apr 20:02:21 20:06:01 63° 305° (NW) 20:11:00 436.750
AAUSAT CUBESAT 2 18 Apr 20:02:39 20:06:55 80° 249° (WSW) 20:11:12 437.432
HO-68 18 Apr 20:04:10 20:11:20 61° 253° (WSW) 20:18:30 435.675
STRAND 1 18 Apr 20:06:41 20:11:48 65° 108° (ESE) 20:16:54 437.568
Cosmos 2499 18 Apr 20:08:56 20:17:52 86° 108° (ESE) 20:26:26 435.465 / 435.565
Oscar 11 18 Apr 20:09:23 20:13:46 80° 64° (ENE) 20:18:11 145.826/435.025
50 SAT 18 Apr 20:14:20 20:18:04 38° 48° (NE) 20:21:52 437.505
CUSAT 1 18 Apr 20:14:27 20:18:25 51° 312° (NW) 20:23:44 437.405
TISAT 1 18 Apr 20:14:33 20:17:42 21° 25° (NNE) 20:20:51 437.305
SPROUT 18 Apr 20:14:40 20:17:58 22° 27° (NNE) 20:21:16 437.525
SO-50 18 Apr 20:19:31 20:23:52 32° 213° (SSW) 20:28:13 436.795
MOZHAYETS 4 18 Apr 20:19:43 20:23:47 30° 323° (NW) 20:27:48
BEESAT 18 Apr 20:23:02 20:26:33 21° 8° (N) 20:30:05 436.000
SWISSCUBE 18 Apr 20:24:07 20:27:39 21° 10° (N) 20:31:11 437.505
BRITE-PL 18 Apr 20:27:16 20:31:05 33° 267° (W) 20:35:01 437.365/2234.400
STARS 18 Apr 20:27:20 20:30:26 19° 348° (NNW) 20:33:31 437.465
DELFI C3 18 Apr 20:29:07 20:33:15 87° 66° (ENE) 20:37:23 145.870
DX 1 18 Apr 20:29:27 20:33:46 68° 58° (ENE) 20:38:06 434.975-435.025
DOVE 4 18 Apr 20:31:11 20:35:21 48° 259° (W) 20:39:47 437.250
UWE-3 18 Apr 20:34:24 20:38:50 87° 66° (ENE) 20:43:25 435.000/436.395/437.385
CINEMA 3 18 Apr 20:36:06 20:40:27 64° 254° (WSW) 20:45:03 145.822/145.860
PRISM 18 Apr 20:39:51 20:44:01 72° 300° (WNW) 20:48:08 437.425
AUBIESAT-1 18 Apr 20:46:34 20:51:20 75° 311° (NW) 20:55:49 437.475
COMPASS 1 18 Apr 20:49:21 20:53:26 42° 261° (W) 20:57:31 437.405
KKS-1 18 Apr 20:49:39 20:52:40 18° 358° (N) 20:55:41 437.445
HUMSAT D 18 Apr 20:50:25 20:54:40 69° 61° (ENE) 20:58:59 437.325/437.525
GOMX 1 18 Apr 20:55:15 20:59:02 30° 269° (W) 21:02:58 467.674
CANX-2 18 Apr 20:57:58 21:01:51 31° 268° (W) 21:05:45 2200.000
ANTELSAT 18 Apr 21:01:21 21:02:51 11° 68° (ENE) 21:04:29 437.575/2403.000
SEEDS 18 Apr 21:02:48 21:06:43 33° 266° (W) 21:10:39 437.485
VELOX 1 18 Apr 21:05:13 21:09:37 69° 59° (ENE) 21:14:03 145.980
FUNcube-1 18 Apr 21:05:18 21:09:42 74° 251° (WSW) 21:14:14 145.935
CUTE 1.7 + AOD 2 18 Apr 21:08:31 21:12:19 29° 270° (W) 21:16:06 437.475
Cosmos 2504 18 Apr 21:11:20 21:19:26 38° 19° (NNE) 21:27:08 435.465 / 435.565
YUBILEINY 18 Apr 21:19:12 21:28:05 76° 62° (ENE) 21:36:53 435.215
AISAT 18 Apr 21:19:51 21:24:17 82° 65° (ENE) 21:28:45 437.250
ITUPSAT 1 18 Apr 21:23:50 21:27:41 25° 23° (NNE) 21:31:34 437.325
UKube-1 18 Apr 21:23:52 21:28:11 68° 250° (WSW) 21:32:32 .
Cosmos 2491 18 Apr 21:26:00 21:32:59 29° 67° (ENE) 21:40:08 435.465 / 435.565
ZACube-1 18 Apr 21:27:38 21:31:57 56° 256° (WSW) 21:36:24 437.345
CUBEBUG 2 18 Apr 21:28:28 21:32:44 46° 261° (W) 21:37:10 437.445
ESTCUBE 1 18 Apr 21:31:18 21:35:49 69° 59° (ENE) 21:40:20 437.505/2401.250
M-CUBED/EXP-1 PRIME 18 Apr 21:31:32 21:36:13 50° 323° (NW) 21:40:39 437.505
CUBEBUG 1 18 Apr 21:33:48 21:38:07 66° 59° (ENE) 21:42:26 437.445
CUBESAT XI-V 18 Apr 21:34:01 21:38:17 37° 316° (NW) 21:42:31 437.345
AAUSAT CUBESAT 2 18 Apr 21:39:36 21:43:10 25° 272° (W) 21:46:42 437.432
GONETS M04 18 Apr 21:41:33 21:49:45 39° 340° (NNW) 21:57:58
STRAND 1 18 Apr 21:46:04 21:51:02 52° 311° (NW) 21:55:59 437.568
Oscar 11 18 Apr 21:46:23 21:50:23 33° 266° (W) 21:54:23 145.826/435.025
DANDE 18 Apr 21:46:41 21:50:16 28° 334° (NNW) 21:54:51 436.750
50 SAT 18 Apr 21:48:43 21:52:45 73° 250° (WSW) 21:56:51 437.505
TISAT 1 18 Apr 21:48:47 21:52:43 40° 48° (NE) 21:56:42 437.305
SPROUT 18 Apr 21:49:14 21:53:19 44° 50° (NE) 21:57:26 437.525
HO-68 18 Apr 21:54:33 22:00:35 27° 279° (W) 22:06:32 435.675
TIGRISAT 18 Apr 21:54:39 21:58:08 20° 81° (E) 22:01:42 435.000
POPSAT HIP 1 18 Apr 21:54:57 21:56:54 13° 74° (ENE) 21:58:58 437.405
UNISAT 6 18 Apr 21:55:18 21:58:49 21° 82° (E) 22:02:26 437.425
NANOSAT C BR1 18 Apr 21:55:24 21:57:20 13° 75° (ENE) 21:59:24 145.865
MOZHAYETS 4 18 Apr 21:56:40 21:59:58 19° 347° (NNW) 22:03:15
CUSAT 1 18 Apr 21:58:30 22:02:22 28° 340° (NNW) 22:07:17 437.405
BEESAT 18 Apr 21:59:14 22:03:21 29° 32° (NNE) 22:07:29 436.000
SWISSCUBE 18 Apr 22:00:18 22:04:28 30° 33° (NNE) 22:08:38 437.505
SO-50 18 Apr 22:00:25 22:03:16 15° 236° (SW) 22:06:03 436.795
STARS 18 Apr 22:02:37 22:05:40 19° 11° (NNE) 22:08:45 437.465
Cosmos 2499 18 Apr 22:03:10 22:11:50 54° 315° (NW) 22:20:05 435.465 / 435.565
DELFI C3 18 Apr 22:05:17 22:08:53 28° 268° (W) 22:12:29 145.870
DX 1 18 Apr 22:06:11 22:10:18 40° 261° (W) 22:14:26 434.975-435.025
BRITE-PL 18 Apr 22:10:13 22:11:08 10° 292° (WNW) 22:11:57 437.365/2234.400
DOVE 4 18 Apr 22:11:35 22:14:19 16° 284° (WNW) 22:17:04 437.250
UWE-3 18 Apr 22:11:57 22:15:54 31° 269° (W) 22:19:57 435.000/436.395/437.385
RS-15 18 Apr 22:12:48 22:23:43 63° 207° (SSW) 22:35:07 29.354- 29.394
CINEMA 3 18 Apr 22:15:12 22:18:36 21° 278° (W) 22:22:04 145.822/145.860
PRISM 18 Apr 22:15:28 22:19:05 29° 322° (NW) 22:22:39 437.425
POLYITAN 1 18 Apr 22:20:31 22:23:26 18° 81° (E) 22:26:26 437.675
AUBIESAT-1 18 Apr 22:21:20 22:25:46 38° 334° (NNW) 22:29:59 437.475
KKS-1 18 Apr 22:24:46 22:28:08 21° 21° (NNE) 22:31:32 437.445
HUMSAT D 18 Apr 22:26:45 22:30:45 38° 264° (W) 22:34:48 437.325/437.525
COMPASS 1 18 Apr 22:27:56 22:30:16 14° 285° (WNW) 22:32:30 437.405
DUCHIFAT 1 18 Apr 22:31:17 22:34:23 19° 83° (E) 22:37:34 145.980
ANTELSAT 18 Apr 22:36:53 22:41:09 32° 92° (E) 22:45:26 437.575/2403.000
CANX-2 18 Apr 22:38:28 22:39:13 10° 292° (WNW) 22:39:52 2200.000
VELOX 1 18 Apr 22:42:20 22:46:30 39° 262° (W) 22:50:41 145.980
SEEDS 18 Apr 22:42:38 22:43:53 11° 290° (WNW) 22:45:03 437.485
FUNcube-1 18 Apr 22:43:10 22:46:46 24° 274° (W) 22:50:26 145.935
QB50P1 18 Apr 22:43:33 22:46:58 23° 87° (E) 22:50:25 145.935-145.965
AISAT 18 Apr 22:57:20 23:01:21 33° 266° (W) 23:05:22 437.250
ITUPSAT 1 18 Apr 23:00:15 23:04:49 44° 46° (NE) 23:09:24 437.325
BUGSAT 1 18 Apr 23:01:15 23:04:30 22° 88° (E) 23:07:47 437.445
UKube-1 18 Apr 23:01:41 23:05:07 22° 273° (W) 23:08:30 .
ZACube-1 18 Apr 23:06:08 23:09:18 19° 280° (W) 23:12:28 437.345
Cosmos 2504 18 Apr 23:06:09 23:14:47 58° 49° (NE) 23:22:51 435.465 / 435.565
M-CUBED/EXP-1 PRIME 18 Apr 23:06:10 23:10:27 32° 346° (NNW) 23:14:35 437.505
QB50P2 18 Apr 23:06:42 23:10:29 30° 92° (E) 23:14:19 145.880/145.840
CUBEBUG 2 18 Apr 23:07:51 23:10:37 16° 285° (WNW) 23:13:21 437.445
ESTCUBE 1 18 Apr 23:08:42 23:13:00 40° 262° (W) 23:17:18 437.505/2401.250
CUBEBUG 1 18 Apr 23:10:38 23:14:46 40° 262° (W) 23:18:53 437.445
CUBESAT XI-V 18 Apr 23:11:22 23:14:51 21° 339° (NNW) 23:18:17 437.345
YUBILEINY 18 Apr 23:16:18 23:24:49 56° 269° (W) 23:33:15 435.215
Cosmos 2491 18 Apr 23:19:52 23:28:23 60° 94° (E) 23:36:59 435.465 / 435.565
TISAT 1 18 Apr 23:24:11 23:28:24 71° 251° (WSW) 23:32:38 437.305
50 SAT 18 Apr 23:25:04 23:28:17 22° 273° (W) 23:31:29 437.505
SPROUT 18 Apr 23:25:04 23:29:22 65° 253° (WSW) 23:33:40 437.525
STRAND 1 18 Apr 23:25:12 23:29:32 28° 335° (NNW) 23:33:50 437.568
Oscar 11 18 Apr 23:26:34 23:27:58 11° 290° (WNW) 23:29:14 145.826/435.025
POPSAT HIP 1 18 Apr 23:29:58 23:34:00 39° 98° (E) 23:38:03 437.405
NANOSAT C BR1 18 Apr 23:30:22 23:34:24 39° 98° (E) 23:38:27 145.865
TIGRISAT 18 Apr 23:31:10 23:35:50 58° 104° (ESE) 23:40:32 435.000
DANDE 18 Apr 23:31:30 23:35:08 23° 2° (N) 23:39:37 436.750
UNISAT 6 18 Apr 23:31:52 23:36:33 59° 105° (ESE) 23:41:15 437.425
MOZHAYETS 4 18 Apr 23:32:42 23:35:55 19° 11° (N) 23:39:09
BEESAT 18 Apr 23:35:54 23:40:38 61° 55° (NE) 23:45:24 436.000
SWISSCUBE 18 Apr 23:37:03 23:41:48 64° 56° (ENE) 23:46:35 437.505
STARS 18 Apr 23:37:21 23:41:07 28° 34° (NE) 23:44:54 437.465
GONETS M04 18 Apr 23:41:04 23:49:10 37° 11° (N) 23:57:17
CUSAT 1 18 Apr 23:42:43 23:46:47 25° 7° (N) 23:51:50 437.405
DX 1 18 Apr 23:45:36 23:47:47 13° 284° (WNW) 23:49:52 434.975-435.025
HO-68 18 Apr 23:49:13 23:51:17 11° 307° (NW) 23:53:09 435.675
PRISM 18 Apr 23:50:48 23:53:36 18° 345° (NNW) 23:56:23 437.425
UWE-3 18 Apr 23:53:05 23:53:59 10° 293° (WNW) 23:54:46 435.000/436.395/437.385
AUBIESAT-1 18 Apr 23:55:38 23:59:48 29° 356° (N) 00:03:49 437.475
POLYITAN 1 18 Apr 23:56:03 00:00:17 54° 104° (ESE) 00:04:33 437.675
Cosmos 2499 18 Apr 23:58:56 00:06:57 37° 344° (NNW) 00:14:34 435.465 / 435.565
KKS-1 18 Apr 23:59:49 00:03:56 38° 44° (NE) 00:08:06 437.445
Oscar 19 19 Apr 00:03:39 00:06:20 14° 71° (ENE) 00:09:09 437.125/150
HUMSAT D 19 Apr 00:05:49 00:07:45 13° 287° (WNW) 00:09:38 437.325/437.525
DUCHIFAT 1 19 Apr 00:06:49 00:11:04 61° 107° (ESE) 00:15:18 145.980
O/OREOS (USA 219) 19 Apr 00:07:37 00:11:25 26° 116° (ESE) 00:15:13 437.305
ANTELSAT 19 Apr 00:13:43 00:18:27 88° 294° (WNW) 00:23:13 437.575/2403.000
QB50P1 19 Apr 00:19:16 00:23:33 72° 110° (ESE) 00:27:50 145.935-145.965
VELOX 1 19 Apr 00:22:07 00:24:19 13° 285° (WNW) 00:26:27 145.980
RS-15 19 Apr 00:24:26 00:34:32 40° 236° (SW) 00:44:56 29.354- 29.394
BUGSAT 1 19 Apr 00:36:33 00:40:39 74° 111° (ESE) 00:44:46 437.445
ITUPSAT 1 19 Apr 00:37:47 00:42:37 74° 250° (WSW) 00:47:27 437.325
AISAT 19 Apr 00:38:05 00:39:22 11° 289° (WNW) 00:40:33 437.250
M-CUBED/EXP-1 PRIME 19 Apr 00:40:15 00:44:29 30° 9° (N) 00:48:37 437.505
AIST 1 19 Apr 00:41:05 00:44:39 26° 87° (E) 00:48:13
QB50P2 19 Apr 00:42:34 00:46:53 86° 296° (WNW) 00:51:12 145.880/145.840
CUBESAT XI-V 19 Apr 00:47:57 00:51:03 18° 3° (N) 00:54:08 437.345
ESTCUBE 1 19 Apr 00:48:43 00:51:08 14° 286° (WNW) 00:53:27 437.505/2401.250
CUBEBUG 1 19 Apr 00:50:07 00:52:20 13° 285° (WNW) 00:54:28 437.445
Cosmos 2504 19 Apr 01:00:08 01:08:50 77° 256° (WSW) 01:16:54 435.465 / 435.565
TISAT 1 19 Apr 01:01:34 01:04:55 22° 273° (W) 01:08:14 437.305
SPROUT 19 Apr 01:02:57 01:06:16 21° 276° (W) 01:09:31 437.525
STRAND 1 19 Apr 01:03:41 01:07:36 23° 359° (N) 01:11:31 437.568
POPSAT HIP 1 19 Apr 01:05:54 01:10:10 67° 301° (WNW) 01:14:26 437.405
NANOSAT C BR1 19 Apr 01:06:17 01:10:32 67° 301° (WNW) 01:14:47 145.865
TIGRISAT 19 Apr 01:08:04 01:12:39 52° 307° (NW) 01:17:15 435.000
MOZHAYETS 4 19 Apr 01:08:07 01:12:03 28° 34° (NE) 01:16:02
UNISAT 6 19 Apr 01:08:48 01:13:22 52° 307° (NW) 01:17:58 437.425
STARS 19 Apr 01:12:42 01:17:04 64° 57° (ENE) 01:21:28 437.465
YUBILEINY 19 Apr 01:13:05 01:20:02 27° 296° (WNW) 01:26:47 435.215
BEESAT 19 Apr 01:14:01 01:18:42 49° 258° (WSW) 01:23:23 436.000
SWISSCUBE 19 Apr 01:15:16 01:19:55 47° 259° (W) 01:24:34 437.505
DANDE 19 Apr 01:15:39 01:19:55 29° 27° (NNE) 01:25:24 436.750
Cosmos 2491 19 Apr 01:16:32 01:25:19 72° 302° (WNW) 01:34:10 435.465 / 435.565
PRISM 19 Apr 01:25:14 01:27:53 17° 8° (N) 01:30:32 437.425
CUSAT 1 19 Apr 01:26:13 01:31:01 35° 33° (NNE) 01:37:08 437.405
AUBIESAT-1 19 Apr 01:29:27 01:33:47 34° 19° (NNE) 01:38:01 437.475
AO-7 19 Apr 01:31:48 01:34:57 13° 53° (NE) 01:38:23 29.400- 29.500
POLYITAN 1 19 Apr 01:32:06 01:36:16 51° 307° (NW) 01:40:28 437.675
KKS-1 19 Apr 01:35:54 01:40:22 83° 246° (WSW) 01:44:53 437.445
GONETS M04 19 Apr 01:39:33 01:48:11 52° 42° (NE) 01:56:50
Oscar 19 19 Apr 01:42:24 01:47:15 38° 95° (E) 01:52:08 437.125/150
DUCHIFAT 1 19 Apr 01:42:47 01:46:53 46° 309° (NW) 01:50:58 145.980
Gurwin Techsat 1B 19 Apr 01:45:01 01:49:05 22° 80° (E) 01:53:12 435.225
O/OREOS (USA 219) 19 Apr 01:45:43 01:50:17 65° 139° (SE) 01:54:49 437.305
ANTELSAT 19 Apr 01:50:38 01:54:57 36° 317° (NW) 01:59:17 437.575/2403.000
Cosmos 2499 19 Apr 01:54:40 02:02:34 36° 14° (NNE) 02:10:01 435.465 / 435.565
QB50P1 19 Apr 01:55:17 01:59:18 40° 312° (NW) 02:03:19 145.935-145.965
ITAMSAT 1 19 Apr 02:00:05 02:04:23 26° 86° (E) 02:08:44 435.822/435.867
JAS-2 19 Apr 02:08:11 02:12:41 17° 60° (ENE) 02:17:05 435.910
BUGSAT 1 19 Apr 02:12:12 02:15:59 38° 312° (NW) 02:19:47 437.445
M-CUBED/EXP-1 PRIME 19 Apr 02:14:03 02:18:39 43° 30° (NNE) 02:23:10 437.505
ITUPSAT 1 19 Apr 02:17:14 02:21:17 26° 272° (W) 02:25:18 437.325
AIST 1 19 Apr 02:17:32 02:21:52 84° 109° (ESE) 02:26:12
QB50P2 19 Apr 02:18:38 02:22:29 33° 317° (NW) 02:26:20 145.880/145.840
CUBESAT XI-V 19 Apr 02:23:39 02:27:18 23° 27° (NNE) 02:30:58 437.345
RS-15 19 Apr 02:36:31 02:43:45 19° 265° (W) 02:50:46 29.354- 29.394
STRAND 1 19 Apr 02:41:24 02:45:39 27° 23° (NNE) 02:49:55 437.568
POPSAT HIP 1 19 Apr 02:41:56 02:45:36 28° 323° (NW) 02:49:15 437.405
NANOSAT C BR1 19 Apr 02:42:17 02:45:56 28° 323° (NW) 02:49:34 145.865
MOZHAYETS 4 19 Apr 02:44:08 02:48:44 60° 57° (ENE) 02:53:21
TIGRISAT 19 Apr 02:44:51 02:48:44 26° 329° (NNW) 02:52:37 435.000
UNISAT 6 19 Apr 02:45:37 02:49:28 26° 330° (NNW) 02:53:21 437.425
STARS 19 Apr 02:49:33 02:53:46 43° 260° (W) 02:58:02 437.465
Cosmos 2504 19 Apr 02:53:42 03:01:22 37° 284° (WNW) 03:08:31 435.465 / 435.565
BEESAT 19 Apr 02:54:26 02:57:41 18° 281° (WNW) 03:00:52 436.000
SWISSCUBE 19 Apr 02:55:52 02:58:59 17° 283° (WNW) 03:02:01 437.505
PRISM 19 Apr 02:58:56 03:02:19 24° 32° (NNE) 03:05:42 437.425
DANDE 19 Apr 02:59:08 03:04:10 54° 51° (NE) 03:10:52 436.750
AUBIESAT-1 19 Apr 03:03:18 03:08:03 57° 41° (NE) 03:12:43 437.475
POLYITAN 1 19 Apr 03:08:07 03:11:34 24° 329° (NNW) 03:14:59 437.675
CUSAT 1 19 Apr 03:09:10 03:14:37 66° 56° (NE) 03:21:46 437.405
YUBILEINY 19 Apr 03:09:55 03:13:43 13° 325° (NW) 03:17:22 435.215
KKS-1 19 Apr 03:13:49 03:17:39 27° 270° (W) 03:21:29 437.445
Cosmos 2491 19 Apr 03:15:24 03:23:42 43° 331° (NNW) 03:32:02 435.465 / 435.565
DUCHIFAT 1 19 Apr 03:18:42 03:22:01 22° 331° (NNW) 03:25:19 145.980
Oscar 19 19 Apr 03:21:53 03:27:07 82° 299° (WNW) 03:32:22 437.125/150
AO-7 19 Apr 03:24:14 03:31:14 29° 82° (E) 03:38:20 29.400- 29.500
Gurwin Techsat 1B 19 Apr 03:24:55 03:30:12 58° 104° (ESE) 03:35:28 435.225
O/OREOS (USA 219) 19 Apr 03:25:11 03:29:47 71° 343° (NNW) 03:34:21 437.305
ANTELSAT 19 Apr 03:27:17 03:30:50 22° 340° (NNW) 03:34:22 437.575/2403.000
QB50P1 19 Apr 03:31:13 03:34:25 21° 335° (NNW) 03:37:36 145.935-145.965
HORYU 2 19 Apr 03:32:10 03:36:05 28° 91° (E) 03:40:01 437.375
GONETS M04 19 Apr 03:37:04 03:45:59 89° 256° (WSW) 03:54:55
ITAMSAT 1 19 Apr 03:39:35 03:44:48 70° 109° (ESE) 03:50:00 435.822/435.867
BUGSAT 1 19 Apr 03:47:46 03:50:42 19° 335° (NNW) 03:53:38 437.445
M-CUBED/EXP-1 PRIME 19 Apr 03:48:21 03:53:14 86° 51° (NE) 03:58:06 437.505
Cosmos 2499 19 Apr 03:49:19 03:57:43 53° 44° (NE) 04:05:31 435.465 / 435.565
JAS-2 19 Apr 03:53:17 04:00:08 39° 87° (E) 04:06:19 435.910
QB50P2 19 Apr 03:54:29 03:57:29 19° 340° (NNW) 04:00:30 145.880/145.840
AIST 1 19 Apr 03:56:00 03:59:59 34° 313° (NW) 04:03:57
CUBESAT XI-V 19 Apr 03:59:35 04:04:00 45° 50° (NE) 04:08:26 437.345
POPSAT HIP 1 19 Apr 04:17:39 04:20:29 18° 346° (NNW) 04:23:19 437.405
NANOSAT C BR1 19 Apr 04:17:58 04:20:47 17° 346° (NNW) 04:23:35 145.865
STRAND 1 19 Apr 04:19:12 04:24:07 48° 46° (NE) 04:29:02 437.568
TIGRISAT 19 Apr 04:21:07 04:24:20 19° 353° (N) 04:27:35 435.000
MOZHAYETS 4 19 Apr 04:21:37 04:26:09 48° 260° (W) 04:30:42
UNISAT 6 19 Apr 04:21:53 04:25:07 19° 354° (N) 04:28:23 437.425
STARS 19 Apr 04:28:53 04:31:25 15° 284° (WNW) 04:33:51 437.465
PRISM 19 Apr 04:33:07 04:37:12 53° 54° (NE) 04:41:17 437.425
AUBIESAT-1 19 Apr 04:38:03 04:42:52 63° 243° (WSW) 04:47:38 437.475
DANDE 19 Apr 04:42:25 04:47:41 69° 252° (WSW) 04:54:43 436.750
POLYITAN 1 19 Apr 04:43:40 04:46:23 17° 352° (N) 04:49:06 437.675
Cosmos 2504 19 Apr 04:47:11 04:52:27 18° 311° (NW) 04:57:23 435.465 / 435.565
CUSAT 1 19 Apr 04:51:56 04:57:29 58° 257° (WSW) 05:04:36 437.405
DUCHIFAT 1 19 Apr 04:54:05 04:56:43 16° 355° (N) 04:59:21 145.980
BEESAT 2 19 Apr 04:56:34 04:57:56 11° 123° (ESE) 04:59:23 435.950
Oscar 19 19 Apr 05:01:20 05:06:08 38° 322° (NW) 05:10:55 437.125/150
ANTELSAT 19 Apr 05:03:10 05:06:22 19° 4° (N) 05:09:37 437.575/2403.000
BEESAT 3 19 Apr 05:04:01 05:06:01 13° 127° (SE) 05:08:05 437.485
O/OREOS (USA 219) 19 Apr 05:05:02 05:09:36 64° 7° (N) 05:14:09 437.305
Gurwin Techsat 1B 19 Apr 05:05:04 05:10:20 59° 308° (NW) 05:15:33 435.225
QB50P1 19 Apr 05:06:30 05:09:07 16° 358° (N) 05:11:45 145.935-145.965
HORYU 2 19 Apr 05:08:47 05:13:21 84° 113° (ESE) 05:17:53 437.375
Cosmos 2491 19 Apr 05:15:03 05:23:02 36° 2° (N) 05:31:03 435.465 / 435.565
AO-7 19 Apr 05:17:35 05:25:51 62° 110° (ESE) 05:34:07 29.400- 29.500
ITAMSAT 1 19 Apr 05:19:15 05:24:16 49° 313° (NW) 05:29:16 435.822/435.867
BUGSAT 1 19 Apr 05:22:43 05:25:02 15° 358° (N) 05:27:22 437.445
M-CUBED/EXP-1 PRIME 19 Apr 05:23:58 05:28:31 38° 255° (WSW) 05:33:01 437.505
QB50P2 19 Apr 05:29:32 05:32:11 16° 4° (N) 05:34:50 145.880/145.840
CUTE-I 19 Apr 05:33:30 05:37:31 21° 81° (E) 05:41:35 437.470
GONETS M04 19 Apr 05:34:03 05:42:17 45° 277° (W) 05:50:27
AIST 1 19 Apr 05:35:49 05:38:52 18° 338° (NNW) 05:41:52
CUBESAT XI-V 19 Apr 05:36:44 05:41:23 68° 253° (WSW) 05:46:01 437.345
JAS-2 19 Apr 05:38:37 05:46:10 85° 113° (ESE) 05:52:50 435.910
Cubesat XI-IV 19 Apr 05:40:48 05:45:00 23° 83° (E) 05:49:14 437.490
Cosmos 2499 19 Apr 05:43:05 05:51:40 85° 253° (WSW) 05:59:35 435.465 / 435.565
POPSAT HIP 1 19 Apr 05:52:26 05:55:08 17° 9° (N) 05:57:52 437.405
NANOSAT C BR1 19 Apr 05:52:43 05:55:24 17° 9° (N) 05:58:06 145.865
TIGRISAT 19 Apr 05:56:27 05:59:50 21° 17° (NNE) 06:03:17 435.000
UNISAT 6 19 Apr 05:57:14 06:00:39 21° 17° (NNE) 06:04:08 437.425
STRAND 1 19 Apr 05:58:07 06:03:15 72° 250° (WSW) 06:08:24 437.568
MOZHAYETS 4 19 Apr 06:01:26 06:04:30 17° 283° (WNW) 06:07:30
PRISM 19 Apr 06:08:41 06:12:47 50° 256° (WSW) 06:16:52 437.425
AUBIESAT-1 19 Apr 06:14:33 06:18:27 24° 265° (W) 06:22:18 437.475
POLYITAN 1 19 Apr 06:18:11 06:21:04 18° 16° (NNE) 06:23:59 437.675
DANDE 19 Apr 06:25:50 06:30:30 28° 272° (W) 06:36:09 436.750
DUCHIFAT 1 19 Apr 06:28:25 06:31:20 18° 18° (NNE) 06:34:15 145.980
BEESAT 2 19 Apr 06:31:27 06:34:57 26° 145° (SE) 06:38:29 435.950
CUSAT 1 19 Apr 06:34:56 06:39:34 24° 277° (W) 06:44:58 437.405
ANTELSAT 19 Apr 06:38:16 06:41:59 25° 28° (NNE) 06:45:47 437.575/2403.000
BRITE-PL 19 Apr 06:38:30 06:39:42 11° 69° (ENE) 06:41:04 437.365/2234.400
BEESAT 3 19 Apr 06:39:26 06:43:01 29° 149° (SSE) 06:46:38 437.485
Oscar 19 19 Apr 06:40:23 06:44:32 25° 345° (NNW) 06:48:40 437.125/150
QB50P1 19 Apr 06:40:46 06:43:48 19° 22° (NNE) 06:46:52 145.935-145.965
O/OREOS (USA 219) 19 Apr 06:44:41 06:49:17 86° 212° (SSW) 06:53:50 437.305
Gurwin Techsat 1B 19 Apr 06:45:02 06:49:40 31° 332° (NNW) 06:54:17 435.225
HORYU 2 19 Apr 06:45:34 06:49:47 38° 316° (NW) 06:53:59 437.375
AIST 2 19 Apr 06:46:51 06:50:09 22° 138° (SE) 06:53:29 435.215
YUBILEINY 19 Apr 06:56:17 06:58:45 12° 27° (NNE) 07:01:24 435.215
BUGSAT 1 19 Apr 06:56:33 06:59:20 18° 22° (NNE) 07:02:09 437.445
ITAMSAT 1 19 Apr 06:58:40 07:03:02 28° 337° (NNW) 07:07:22 435.822/435.867
M-CUBED/EXP-1 PRIME 19 Apr 07:02:06 07:04:40 14° 277° (W) 07:07:07 437.505
GOMX 1 19 Apr 07:03:27 07:05:22 12° 71° (ENE) 07:07:27 467.674
QB50P2 19 Apr 07:03:41 07:06:56 22° 27° (NNE) 07:10:14 145.880/145.840
AO-7 19 Apr 07:10:46 07:19:04 74° 316° (NW) 07:27:21 29.400- 29.500
CUTE-I 19 Apr 07:13:29 07:18:45 57° 104° (ESE) 07:24:01 437.470
Cosmos 2491 19 Apr 07:13:55 07:22:18 45° 32° (NNE) 07:30:43 435.465 / 435.565
HO-68 19 Apr 07:15:23 07:20:13 19° 70° (ENE) 07:25:10 435.675
AIST 1 19 Apr 07:15:37 07:18:10 15° 3° (N) 07:20:43
CUBESAT XI-V 19 Apr 07:15:55 07:19:40 23° 276° (W) 07:23:20 437.345
Cubesat XI-IV 19 Apr 07:20:52 07:26:10 62° 107° (ESE) 07:31:28 437.490
JAS-2 19 Apr 07:23:44 07:30:58 52° 319° (NW) 07:37:29 435.910
POPSAT HIP 1 19 Apr 07:26:30 07:29:57 25° 33° (NNE) 07:33:26 437.405
NANOSAT C BR1 19 Apr 07:26:44 07:30:10 25° 33° (NNE) 07:33:39 145.865
GONETS M04 19 Apr 07:30:50 07:37:02 22° 305° (NW) 07:43:04
TIGRISAT 19 Apr 07:31:30 07:35:37 33° 40° (NE) 07:39:50 435.000
UNISAT 6 19 Apr 07:32:20 07:36:28 34° 41° (NE) 07:40:43 437.425
Cosmos 2499 19 Apr 07:36:24 07:44:08 41° 279° (W) 07:51:18 435.465 / 435.565
STRAND 1 19 Apr 07:39:00 07:43:19 26° 273° (W) 07:47:36 437.568
PRISM 19 Apr 07:46:33 07:49:14 16° 279° (W) 07:51:49 437.425
POLYITAN 1 19 Apr 07:52:19 07:56:02 30° 39° (NE) 07:59:46 437.675
DUCHIFAT 1 19 Apr 08:02:30 08:06:14 31° 41° (NE) 08:10:00 145.980
BEESAT 2 19 Apr 08:08:29 08:12:27 43° 168° (SSE) 08:16:26 435.950
DANDE 19 Apr 08:10:54 08:12:22 11° 294° (WNW) 08:13:41 436.750
UWE-3 19 Apr 08:11:30 08:12:15 10° 66° (ENE) 08:13:08 435.000/436.395/437.385
ANTELSAT 19 Apr 08:13:38 08:18:03 48° 50° (NE) 08:22:34 437.575/2403.000
DOVE 4 19 Apr 08:14:49 08:18:31 23° 84° (E) 08:22:27 437.250
QB50P1 19 Apr 08:14:58 08:18:49 35° 44° (NE) 08:22:43 145.935-145.965
BRITE-PL 19 Apr 08:15:38 08:19:43 32° 93° (E) 08:24:05 437.365/2234.400
CINEMA 3 19 Apr 08:16:16 08:19:22 17° 77° (ENE) 08:22:37 145.822/145.860
BEESAT 3 19 Apr 08:16:31 08:20:29 44° 171° (S) 08:24:27 437.485
COMPASS 1 19 Apr 08:18:25 08:21:23 18° 81° (E) 08:24:22 437.405
Oscar 19 19 Apr 08:18:37 08:22:40 24° 10° (N) 08:26:44 437.125/150
HORYU 2 19 Apr 08:22:08 08:25:36 22° 339° (NNW) 08:29:02 437.375
AIST 2 19 Apr 08:23:58 08:27:59 39° 160° (SSE) 08:32:01 435.215
O/OREOS (USA 219) 19 Apr 08:24:12 08:28:26 38° 235° (SW) 08:32:37 437.305
Gurwin Techsat 1B 19 Apr 08:24:22 08:28:32 24° 356° (N) 08:32:41 435.225
CANX-2 19 Apr 08:28:05 08:31:43 26° 88° (E) 08:35:23 2200.000
BUGSAT 1 19 Apr 08:30:19 08:33:59 34° 45° (NE) 08:37:41 437.445
SEEDS 19 Apr 08:32:10 08:35:38 23° 86° (E) 08:39:08 437.485
ITAMSAT 1 19 Apr 08:37:22 08:41:23 23° 1° (N) 08:45:25 435.822/435.867
QB50P2 19 Apr 08:38:05 08:42:07 44° 50° (NE) 08:46:12 145.880/145.840
CUTE 1.7 + AOD 2 19 Apr 08:38:21 08:42:06 28° 90° (E) 08:45:50 437.475
FUNcube-1 19 Apr 08:40:00 08:42:00 13° 71° (ENE) 08:44:07 145.935
GOMX 1 19 Apr 08:40:38 08:44:54 35° 94° (E) 08:49:27 467.674
YUBILEINY 19 Apr 08:45:59 08:52:07 22° 56° (ENE) 08:58:24 435.215
CUTE-I 19 Apr 08:53:45 08:58:59 60° 308° (NW) 09:04:14 437.470
AIST 1 19 Apr 08:54:08 08:57:24 21° 29° (NNE) 09:00:41
UKube-1 19 Apr 08:58:40 08:59:29 10° 71° (ENE) 09:00:27 .
POPSAT HIP 1 19 Apr 09:01:06 09:05:14 55° 56° (NE) 09:09:25 437.405
Cubesat XI-IV 19 Apr 09:01:08 09:06:22 56° 310° (NW) 09:11:34 437.490
NANOSAT C BR1 19 Apr 09:01:18 09:05:26 55° 56° (NE) 09:09:36 145.865
ZACube-1 19 Apr 09:01:55 09:04:49 17° 77° (ENE) 09:07:48 437.345
HO-68 19 Apr 09:03:13 09:10:04 44° 96° (E) 09:16:55 435.675
AO-7 19 Apr 09:03:23 09:11:18 51° 342° (NNW) 09:19:13 29.400- 29.500
CUBEBUG 2 19 Apr 09:04:39 09:08:11 21° 82° (E) 09:11:51 437.445
AAUSAT CUBESAT 2 19 Apr 09:07:02 09:10:47 29° 91° (E) 09:14:32 437.432
TIGRISAT 19 Apr 09:07:24 09:11:59 80° 63° (ENE) 09:16:41 435.000
JAS-2 19 Apr 09:08:13 09:14:58 36° 345° (NNW) 09:21:09 435.910
UNISAT 6 19 Apr 09:08:18 09:12:54 82° 63° (ENE) 09:17:37 437.425
Cosmos 2491 19 Apr 09:11:40 09:20:33 76° 62° (ENE) 09:29:26 435.465 / 435.565
Oscar 11 19 Apr 09:18:34 09:22:10 24° 87° (E) 09:25:47 145.826/435.025
POLYITAN 1 19 Apr 09:27:17 09:31:32 74° 62° (ENE) 09:35:50 437.675
GONETS M04 19 Apr 09:27:51 09:30:21 11° 334° (NNW) 09:32:41
Cosmos 2499 19 Apr 09:29:37 09:35:08 19° 307° (NW) 09:40:17 435.465 / 435.565
DELFI C3 19 Apr 09:29:42 09:33:00 23° 87° (E) 09:36:18 145.870
